Location: Pensacola
(30.4142°N, 87.2155°W)
Time: 06:22:09
(UTC-05:00)

Max Valier Satellite - Visible Passes

Search period start: 05 June 2023 00:00
Search period end: 15 June 2023 00:00
Orbit: 444 x 458 km, 97.2° (Epoch: 04 June)

Date Brightness Start Highest point End Pass type
(mag) Time Alt. Az. Time Alt. Az. Time Alt. Az.
06 Jun ? 21:09:18 10° SW 21:11:28 16° W 21:13:38 10° NW visible
07 Jun ? 20:33:22 10° S 20:36:42 54° W 20:40:02 10° NNW visible
09 Jun ? 20:57:15 10° SSW 21:00:00 23° W 21:02:45 10° NW visible
10 Jun ? 20:21:47 10° S 20:25:10 85° W 20:28:34 10° NNW visible
11 Jun ? 21:22:26 10° WSW 21:23:12 11° W 21:23:58 10° W visible
12 Jun ? 20:45:05 10° SSW 20:48:11 34° W 20:51:18 10° NNW visible
14 Jun ? 21:08:58 10° SW 21:11:07 16° W 21:13:15 10° NW visible
